• In Portugal
  • List of Countries
  • For 7 days
  • Water Temperature
  • Satellite Maps
  • Weather Map
  • Weather Widgets
  • user-avatar
    Login

    Hourly Weather Wartule

    Today, 19 August, Sunday

    Time Temperature Precipitation Wind Pressure Humidity
    00:00 +17°C° 0 mm 2 mps 756 mmHg 83%
    01:00 +17°C° 0 mm 2 mps 756 mmHg 83%
    02:00 +17°C° 0 mm 2 mps 756 mmHg 85%
    03:00 +17°C° 0 mm 2 mps 756 mmHg 86%
    04:00 +17°C° 0 mm 2 mps 756 mmHg 87%
    05:00 +18°C° 0 mm 2 mps 756 mmHg 84%
    06:00 +19°C° 0 mm 2 mps 756 mmHg 82%
    07:00 +20°C° 0 mm 2 mps 756 mmHg 79%
    08:00 +23°C° 0 mm 2 mps 756 mmHg 70%
    09:00 +25°C° 0 mm 2 mps 756 mmHg 61%
    10:00 +26°C° 0 mm 3 mps 756 mmHg 52%
    11:00 +27°C° 0 mm 3 mps 756 mmHg 49%
    12:00 +28°C° 0 mm 3 mps 756 mmHg 46%
    13:00 +28°C° 0 mm 3 mps 756 mmHg 43%
    14:00 +28°C° 0 mm 3 mps 756 mmHg 43%
    15:00 +28°C° 0 mm 2 mps 756 mmHg 43%
    16:00 +28°C° 0 mm 2 mps 755 mmHg 44%
    17:00 +26°C° 0 mm 2 mps 755 mmHg 51%
    18:00 +24°C° 0 mm 2 mps 755 mmHg 58%
    19:00 +23°C° 0 mm 2 mps 755 mmHg 65%
    20:00 +21°C° 0 mm 2 mps 755 mmHg 68%
    21:00 +20°C° 0 mm 2 mps 754 mmHg 70%
    22:00 +20°C° 0 mm 1 mps 754 mmHg 73%
    23:00 +19°C° 0 mm 2 mps 754 mmHg 72%

    Tomorrow, 20 August, Monday

    Time Temperature Precipitation Wind Pressure Humidity
    00:00 +19°C° 0 mm 2 mps 754 mmHg 71%
    01:00 +19°C° 0 mm 2 mps 753 mmHg 69%
    02:00 +19°C° 0 mm 2 mps 753 mmHg 67%
    03:00 +18°C° 0 mm 3 mps 753 mmHg 66%
    04:00 +18°C° 0 mm 3 mps 752 mmHg 64%
    05:00 +19°C° 0 mm 3 mps 752 mmHg 62%
    06:00 +21°C° 0 mm 4 mps 752 mmHg 61%
    07:00 +22°C° 0 mm 4 mps 752 mmHg 59%
    08:00 +23°C° 0 mm 5 mps 752 mmHg 56%
    09:00 +26°C° 0 mm 5 mps 752 mmHg 53%
    10:00 +27°C° 0 mm 5 mps 752 mmHg 49%
    11:00 +28°C° 0 mm 5 mps 751 mmHg 49%
    12:00 +28°C° 0 mm 6 mps 751 mmHg 49%
    13:00 +29°C° 0 mm 6 mps 751 mmHg 48%
    14:00 +27°C° 0.1 mm 6 mps 751 mmHg 54%
    15:00 +26°C° 0.1 mm 5 mps 751 mmHg 60%
    16:00 +25°C° 0.1 mm 5 mps 751 mmHg 66%
    17:00 +23°C° 0.1 mm 5 mps 751 mmHg 70%
    18:00 +22°C° 0.1 mm 5 mps 751 mmHg 74%
    19:00 +21°C° 0.1 mm 4 mps 751 mmHg 78%
    20:00 +20°C° 0 mm 4 mps 751 mmHg 78%
    21:00 +17°C° 0 mm 5 mps 751 mmHg 77%
    22:00 +16°C° 0 mm 5 mps 751 mmHg 77%
    23:00 +15°C° 0 mm 5 mps 752 mmHg 77%

    Day after tomorrow, 21 August, Tuesday

    Time Temperature Precipitation Wind Pressure Humidity
    00:00 +15°C° 0 mm 5 mps 752 mmHg 77%
    01:00 +14°C° 0 mm 5 mps 752 mmHg 77%
    02:00 +14°C° 0 mm 4 mps 752 mmHg 77%
    03:00 +14°C° 0 mm 4 mps 753 mmHg 78%
    04:00 +14°C° 0 mm 4 mps 753 mmHg 79%
    05:00 +15°C° 0 mm 5 mps 754 mmHg 77%
    06:00 +16°C° 0 mm 5 mps 754 mmHg 75%
    07:00 +17°C° 0 mm 5 mps 755 mmHg 74%
    08:00 +19°C° 0.1 mm 5 mps 755 mmHg 69%
    09:00 +20°C° 0.1 mm 5 mps 755 mmHg 64%
    10:00 +21°C° 0.1 mm 5 mps 756 mmHg 59%
    11:00 +22°C° 0 mm 5 mps 756 mmHg 57%
    12:00 +22°C° 0 mm 5 mps 756 mmHg 54%
    13:00 +23°C° 0 mm 5 mps 756 mmHg 51%
    14:00 +22°C° 0 mm 4 mps 756 mmHg 52%
    15:00 +22°C° 0 mm 4 mps 756 mmHg 52%
    16:00 +22°C° 0 mm 4 mps 757 mmHg 53%
    17:00 +20°C° 0 mm 3 mps 757 mmHg 60%
    18:00 +18°C° 0 mm 3 mps 757 mmHg 66%
    19:00 +17°C° 0 mm 2 mps 757 mmHg 73%
    20:00 +16°C° 0 mm 2 mps 757 mmHg 75%
    21:00 +15°C° 0 mm 2 mps 758 mmHg 77%
    22:00 +14°C° 0 mm 1 mps 758 mmHg 79%
    23:00 +14°C° 0 mm 1 mps 758 mmHg 80%

    22 August, Wednesday

    Time Temperature Precipitation Wind Pressure Humidity
    00:00 +14°C° 0 mm 1 mps 758 mmHg 81%
    01:00 +13°C° 0 mm 2 mps 758 mmHg 81%
    02:00 +13°C° 0 mm 2 mps 758 mmHg 82%
    03:00 +13°C° 0 mm 2 mps 758 mmHg 82%
    04:00 +13°C° 0 mm 2 mps 758 mmHg 83%
    05:00 +14°C° 0 mm 2 mps 758 mmHg 79%
    06:00 +15°C° 0 mm 2 mps 759 mmHg 75%
    07:00 +16°C° 0 mm 3 mps 759 mmHg 71%
    08:00 +18°C° 0 mm 3 mps 759 mmHg 65%
    09:00 +20°C° 0 mm 3 mps 759 mmHg 59%
    10:00 +22°C° 0 mm 3 mps 759 mmHg 52%
    11:00 +24°C° 0 mm 3 mps 758 mmHg 50%
    12:00 +25°C° 0 mm 3 mps 758 mmHg 48%
    13:00 +26°C° 0 mm 3 mps 757 mmHg 46%
    14:00 +26°C° 0 mm 3 mps 757 mmHg 47%
    15:00 +26°C° 0 mm 3 mps 757 mmHg 47%
    16:00 +26°C° 0 mm 3 mps 756 mmHg 47%
    17:00 +25°C° 0 mm 3 mps 756 mmHg 53%
    18:00 +22°C° 0 mm 3 mps 756 mmHg 59%
    19:00 +20°C° 0 mm 3 mps 755 mmHg 65%
    20:00 +20°C° 0 mm 3 mps 755 mmHg 64%
    21:00 +19°C° 0 mm 4 mps 755 mmHg 63%
    22:00 +19°C° 0 mm 4 mps 755 mmHg 63%
    23:00 +18°C° 0 mm 4 mps 755 mmHg 61%

    23 August, Thursday

    Time Temperature Precipitation Wind Pressure Humidity
    00:00 +18°C° 0 mm 4 mps 755 mmHg 60%
    01:00 +17°C° 0 mm 4 mps 755 mmHg 59%
    02:00 +17°C° 0 mm 4 mps 754 mmHg 60%
    03:00 +17°C° 0 mm 4 mps 754 mmHg 62%
    04:00 +17°C° 0 mm 4 mps 754 mmHg 63%
    05:00 +18°C° 0 mm 4 mps 754 mmHg 64%
    06:00 +19°C° 0 mm 4 mps 754 mmHg 65%
    07:00 +20°C° 0 mm 4 mps 754 mmHg 67%
    08:00 +21°C° 0 mm 4 mps 754 mmHg 63%
    09:00 +23°C° 0 mm 4 mps 754 mmHg 59%
    10:00 +26°C° 0 mm 4 mps 753 mmHg 55%
    11:00 +26°C° 0 mm 4 mps 753 mmHg 54%
    12:00 +27°C° 0 mm 4 mps 753 mmHg 53%
    13:00 +27°C° 0 mm 3 mps 752 mmHg 51%
    14:00 +27°C° 0 mm 3 mps 752 mmHg 51%
    15:00 +28°C° 0 mm 3 mps 752 mmHg 50%
    16:00 +28°C° 0 mm 3 mps 751 mmHg 50%
    17:00 +27°C° 0 mm 3 mps 751 mmHg 53%
    18:00 +25°C° 0 mm 3 mps 751 mmHg 57%
    19:00 +24°C° 0 mm 3 mps 750 mmHg 61%
    20:00 +22°C° 0 mm 3 mps 750 mmHg 62%
    21:00 +22°C° 0 mm 3 mps 750 mmHg 62%
    22:00 +21°C° 0 mm 3 mps 750 mmHg 63%
    23:00 +21°C° 0 mm 3 mps 750 mmHg 62%

    24 August, Friday

    Time Temperature Precipitation Wind Pressure Humidity
    00:00 +21°C° 0 mm 4 mps 749 mmHg 61%
    01:00 +21°C° 0 mm 4 mps 749 mmHg 60%
    02:00 +21°C° 0 mm 4 mps 749 mmHg 60%
    03:00 +21°C° 0 mm 4 mps 748 mmHg 61%
    04:00 +21°C° 0 mm 4 mps 748 mmHg 61%
    05:00 +21°C° 0 mm 4 mps 748 mmHg 62%
    06:00 +22°C° 0 mm 4 mps 747 mmHg 63%
    07:00 +22°C° 0 mm 5 mps 747 mmHg 63%
    08:00 +23°C° 0.1 mm 5 mps 747 mmHg 61%
    09:00 +26°C° 0.1 mm 5 mps 746 mmHg 59%
    10:00 +27°C° 0.1 mm 5 mps 746 mmHg 57%
    11:00 +29°C° 0 mm 5 mps 746 mmHg 54%
    12:00 +30°C° 0 mm 5 mps 745 mmHg 50%
    13:00 +32°C° 0 mm 5 mps 745 mmHg 47%
    14:00 +30°C° 0 mm 4 mps 744 mmHg 50%
    15:00 +30°C° 0 mm 4 mps 744 mmHg 52%
    16:00 +29°C° 0 mm 3 mps 744 mmHg 54%
    17:00 +27°C° 1.1 mm 4 mps 744 mmHg 63%
    18:00 +25°C° 1.1 mm 4 mps 744 mmHg 72%
    19:00 +22°C° 1.1 mm 5 mps 744 mmHg 81%
    20:00 +21°C° 0.8 mm 5 mps 745 mmHg 84%
    21:00 +19°C° 0.8 mm 5 mps 745 mmHg 87%
    22:00 +17°C° 0.8 mm 5 mps 746 mmHg 90%
    23:00 +17°C° 0 mm 4 mps 746 mmHg 89%
    Show more